Location: Boiro
(42.6475°N, 8.8834°W)
Time: 23:14:22
(UTC+01:00)

A-11 Canister half - Pass Details

Date: 08 December 2021
Orbit: 1516 x 1684 km, 47.2° (Epoch: 18 January)

Event Time Altitude Azimuth Distance (km) Brightness Sun altitude
Rises 04:37:41 0° 173° (S) 4,683 - -46.0°
Exits shadow 04:38:53 - 169° (SSE) 4,416 11.4 -45.8°
Reaches altitude 10° 04:42:43 10° 150° (SSE) 3,735 11.1 -45.1°
Maximum altitude 04:47:05 14° 122° (ESE) 3,445 11.2 -44.3°
Drops below altitude 10° 04:51:29 10° 94° (E) 3,804 11.6 -43.5°
Sets 04:56:39 0° 72° (ENE) 4,832 12.4 -42.6°
